Weather Roundup
Issued by NWS Chicago, IL

Home | Current Version | Previous Version | Graphics & Text | Print | Product List | Glossary On
Versions: 1 2 3 4 5 6 7 8 9 10 11 12 13 14 15 16 17 18 19 20 21 22 23 24 25 26 27 28 29 30 31 32 33 34 35 36 37 38 39 40 41 42 43 44 45 46 47 48 49 50
000
NZUS59 KLOT 161508
HRRLOT

CHICAGO AREA WEATHER ROUNDUP
NATIONAL WEATHER SERVICE CHICAGO/ROMEOVILLE IL
900 AM CST SAT DEC 16 2017

NOTE: "FAIR" INDICATES FEW OR NO CLOUDS BELOW 12,000 FEET WITH NO
SIGNIFICANT WEATHER AND/OR OBSTRUCTIONS TO VISIBILITY.

* THESE STATIONS ARE NOT UNDER NWS QUALITY CONTROL. THEY ALSO MAY NOT
  REPORT WEATHER SUCH AS PRECIPITATION OR FOG.

ILZ005-006-012>014-019>023-161600-
NORTHEAST ILLINOIS

CITY           SKY/WX    TMP DP  RH WIND       PRES   REMARKS
OHARE          MOSUNNY   36  24  62 SW6       29.87R
MIDWAY         MOSUNNY   36  25  64 SW10      29.88R
AURORA         SUNNY     34  25  69 SW6       29.88R WCI  29
LANSING*       SUNNY     34  27  74 SW10      29.89S WCI  26
JOLIET*        SUNNY     37  26  67 SW8       29.89R
WAUKEGAN       SUNNY     37  26  64 SW6       29.86R
DUPAGE AIRPORT SUNNY     34  26  72 SW9       29.87R WCI  27
WHEELING       SUNNY     37  26  64 S9        29.89R
KANKAKEE*      SUNNY     35  25  67 SW10      29.93R WCI  27
MORRIS*        SUNNY     35  25  67 SW14      29.88R WCI  26
LEWIS AIRPORT* SUNNY     35  26  68 SW12      29.88R WCI  27
NORTHERLY ISL    N/A     36  24  62 SW6         N/A
$$

WIZ051-052-058>065-066-070>072-161600-
SOUTHEAST WISCONSIN

CITY           SKY/WX    TMP DP  RH WIND       PRES   REMARKS
MILWAUKEE      CLOUDY    35  30  82 CALM      29.86S
KENOSHA*       MOSUNNY   37  25  61 CALM      29.86R
RACINE*        CLOUDY    36  27  69 CALM      29.88R
BURLINGTON     SUNNY     35  28  73 S3        29.86R
WAUKESHA       CLOUDY    28  28 100 NE6       29.86R FOG     WCI  22
WEST BEND      CLOUDY    30  28  93 NE8       29.88R WCI  23
$$

INZ001>003-010>013-019-020-161600-
NORTHWEST INDIANA

CITY           SKY/WX    TMP DP  RH WIND       PRES   REMARKS
GARY*          MOSUNNY   36  23  60 SW9       29.89S
MICHIGAN CITY* NOT AVBL
RENSSELAER*    NOT AVBL
VALPARAISO     SUNNY     37  26  64 SW12      29.91R
$$

LMZ740>746-161600-
SOUTHERN LAKE MICHIGAN

STATION/POSITION TIME  SKY/WX   TEMP WIND        PRES    VSBY
                                AIR  DIR/SP/G
                 (UTC)          (F)  (DEG/KT/KT) (MB)    (MI)
HARRISON CRIB    1440            36  210/ 12/ 13   N/A
BURNHAM HARBOR   1500            36  240/  5/ 12   N/A
CALUMET HARBOR   1412            34  200/ 10/ 14 1011.1
BURNS HARBOR     1440            36  210/ 10/ 18 1012.9R
MICHIGAN CITY    1440            36  200/ 15/ 17   N/A
$$

ABBREVIATIONS USED IN REMARKS
   TC - TEMPERATURE IN CELSIUS
  WCI - WIND CHILL INDEX
   HX - HEAT INDEX
  VSB - VISIBILITY
$$




USA.gov is the U.S. government's official web portal to all federal, state and local government web resources and services.